sat.trackr.live / text

‹ back to catalog

KUIPER-00453

NORAD 68947 · 2026-098AE

PAYLOAD ACTIVE UNKNOWN

§ Identity

Operator
Country
US
Launch date
2026-04-30
Launch site
FRGUI
Launch vehicle
Mass (kg)
RCS (m²)

External: N2YO · Heavens-Above · Gunter

§ Orbital elements

Epoch: 2026-05-24T12:18:05.497632Z

Period
93.73 min
Inclination
51.8736°
Eccentricity
0.0007098
Mean motion
15.36327028 rev/d
Perigee alt
452.1 km
Apogee alt
461.8 km
Semi-major
6,835.1 km
B*
2.9026e-3
RAAN
181.5901°
Arg perigee
69.3476°
Mean anomaly
290.8271°
Rev number
371

§ Raw data

KUIPER-004531 68947U 26098AE  26144.51256363  .00105556  00000+0  29026-2 0  99992 68947  51.8736 181.5901 0007098  69.3476 290.8271 15.36327028  3717

JSON: /api/v1/satellites/68947 · /tle

For live sub-satellite position, see the globe view (requires WebGL).

§ Visibility from observer

Set your observer location to see the next 7 days of passes ≥ 10°. The values pass through the URL so the page stays shareable.

No JS? Fill the form by hand. The geolocation button needs JavaScript.